ATLAS 5 CENTAUR DEB, 57598

Orbit data source: Space-Track

ATLAS 5 CENTAUR DEB, 57598 is space debris in HEO originally from a launch on Wed, 17 Oct 2018 UTC launched from the Air Force Eastern Test Range (AFETR). Debris objects in space refer to the collection of defunct objects orbiting the Earth. Examples of debris include non-operational satellites, rocket bodies, and fragments generated from explosions, collisions, or faulty payload assembly.

Loading next visibility...
Identifier
57598, 2018-079HZ
Orbit
HEO
Country
Flag of USUS
Related business
Flag of USUnited Launch Alliance/Lockheed Martin (US)
Manufacturer
ULA Decatur
Mission
Spacecraft
Bus & Motor
Unknown
Mass
Unknown
Launch date (UTC)
2018-10-17 (7 years ago)
Launch vehicle
Unknown
Launch site
Air Force Eastern Test Range (AFETR)
Object type
Payload
Rocket body
Debris
Shape & HBR
Unknown shape, 1.1 m
Radar Cross Section
RCS unknown

Expand to show TLE details & history
Last TLE update: 1 week ago

TLE from 1 week ago
0 ATLAS 5 CENTAUR DEB
1 57598U 18079HZ  26027.54460833 -.00000151  00000-0  00000-0 0  9997
2 57598  13.1129  47.5769 4632055 292.0837  25.7123  1.82942335 42808
Epoch: 2026-01-27T13:04Z
TLE epoch observation values (Epoch: 2026-01-27T13:04:14.159Z)
Latitude
-0.00001°
Longitude
84.73747°
Altitude
12,524.295 km
Speed
5.297 km/s
True Right ascension
03h 10m 29s
True Declination
0° 00' 00"
Sunlit
Object was in daylight at epoch
Visualization orbit readout
Latitude
Unknown
Longitude
Unknown
Altitude
Unknown
Speed
Unknown
Apparent Right ascension
Unknown
Apparent Declination
Unknown
Sunlit
N/A
Visualization observer readout
Local Sidereal Time
03:14:00
Azimuth
Unknown
Elevation
Unknown
Doppler factor
Unknown
Orbital elements
Apogee altitude
34,945.298 km
Perigee altitude
8,781.861 km
Semi-major axis
28,241.717 km
Eccentricity
0.46321
Inclination
13.1129°
RAAN
47.5769°
Arg. of periapsis
292.0837°
True anomaly
67.70564°
Mean anomaly
25.7123°
Eccentric anomaly
44.22226°
Mean motion
0.45731 °/min
Orbital period
787.22 mins
BSTAR
0
Loading maneuver chart data...
Computing Atmospheric mass density...

Documentation

Showing up to 5 results
|